Погода Душанбе

Погода Душанбе : погода сейчас, прогноз погоды и архив. Всё, что Вы хотите узнать о погоде Душанбе!

Поиск расширенной информации на нашем сайте:

Другие новости

Новости СМИ2

Главная страница сайта

Новости сайта

03.07.2017

Напоминаем, что на нашем специализированном сайте Метеоцентр.Азия вы можете получить высокодетализированные автоматические прогнозы погоды по пунктам России, СНГ и мира в авиационном формате (включающие направление и скорость ветра, видимость, явления погоды, количество и форму облачности, нижнюю и верхнюю границу облачности).

Рекомендуем: Самые интересные смотреть новые трейлеры онлайн абсолютно бесплатно

Погода Душанбе - сегодня

Время (UTC), дата Ветер
(°,м/с) 
Видим.   Явления Облачность Т
(°С)
Тd
(°С)
f(%) Тe
(°С)
Pmin
(гПа)
dP
(гПа)
Po
(мм)
O2
(г/м3)
Тmin Tmax R s Состояние
почвы
09 19.06.18 090 (В) 20000 м    3/0 верхняя 
[Ci ing]
+34 +5 16 +34  1003.1  -1.4  689  246           
12 19.06.18 тихо ()   20000 м    3/0 верхняя 
[Ci ing]
+34.8 +3.4 14 +35  999.7  -2.6  687  245           
15 19.06.18 тихо ()   20000 м    3/3 1500 м 
[Cu med, cong]
+24 +11 44 +28  1004.7  1.5  688  253    +35.5       
18 19.06.18 тихо ()   н/о    3/0 верхняя 
[Ci ing]
+21.6 +9.8 47 +24  1006.2  0.8  689  255    +35.5       
21 19.06.18 тихо ()   н/о    3/0 верхняя 
[Ci ing]
+20.5 +8 44 +21  1007.4  0.7  689  257           
00 20.06.18 тихо ()   20000 м    4/3 1000 м кучево-дожд., верхняя 
[Cb cap|Ci ing]
+17.8 +9 56 +19  1008.4  0.2  689  259           
03 20.06.18 270 (З) 20000 м  {ливн. осадки}  8/6 1000 м средняя, верхняя 
[Sc|Ac trans|Ci ing]
+23.9 +10.9 44 +28  1007  0.3  690  253  +17.4        сухая 
06 20.06.18 090 (В) 20000 м    6/4 1000 м средняя, верхняя 
[Sc|Ac cast|Ci ing]
+29.7 +10.2 30 +33  1005.2  -0.1  690  249  +17.4         
09 20.06.18 090 (В) 10  20000 м    4/3 1000 м средняя, верхняя 
[Ac trans|Ci ing]
+31.2 +8.6 25 +32  1005.5  0.7  690  248           
12 20.06.18 090 (В) 20000 м  {гроза, ливн. осадки}  8/5 1000 м кучево-дожд., средняя, верхняя 
[Cb cap|Ac trans|Ci ing]
+28.8 +9.3 30 +31  1007.9  1.6  691  250           
15 20.06.18 090 (В) 20000 м    6/3 1000 м кучево-дожд., верхняя 
[Cb cap|Ci ing]
+22.4 +10.6 47 +26  1010.6  0.7  692  256    +32.4       
18 20.06.18 тихо ()   н/о    6/5 1000 м кучево-дожд., верхняя 
[Cb cap|Ci ing]
+21.8 +10 47 +25  1011.9  1.1  693  257    +32.4       
00 21.06.18 тихо ()   20000 м    5/3 1000 м кучево-дожд., средняя, верхняя 
[Cb cap|Ac trans|Ci ing]
+19.1 +10.9 59 +23  1011.2  -1  692  258           
03 21.06.18 тихо ()   20000 м    4/0 верхняя 
[Ci ing]
+25.7 +12.4 44 +32  1009.4  0.2  693  253  +18.8        мокрая 
06 21.06.18 тихо ()   20000 м    3/0 верхняя 
[Ci ing]
+31.7 +9.5 25 +34  1006.9  -0.8  691  248  +18.8         
09 21.06.18 тихо ()   20000 м    3/0 верхняя 
[Ci sp]
+32 +7.1 21 +32  1004.9  -1.8  690  248           
12 21.06.18 090 (В) 20000 м    4/0 верхняя 
[Ci ing]
+31.3 +4.1 18 +31  1002.9  -2.1  688  248           
15 21.06.18 090 (В) 20000 м    5/3 1000 м кучево-дожд., верхняя 
[Cb cap|Ci ing]
+27 +13.5 43 +35  1004.9  689  250    +32.5       
18 21.06.18 тихо ()   н/о    5/5 1000 м кучево-дожд. 
[Cb cap]
+23 +10.5 45 +27  1007.2  0.8  690  254    +32.5       
00 22.06.18 тихо ()   20000 м    5/3 1000 м кучево-дожд., верхняя 
[Cb cap|Ci ing]
+17.8 +10 60 +21  1010  1.5  691  259           
03 22.06.18 тихо ()   20000 м    4/0 верхняя 
[Ci fib]
+26.7 +8.5 32 +28  1007  -0.2  690  252  +17.5        сухая 
06 22.06.18 тихо ()   20000 м    4/0 верхняя 
[Ci ing]
+31.8 +6.4 20 +32  1003.7  -1.7  689  248  +17.5         
09 22.06.18 090 (В) 20000 м    3/0 верхняя 
[Ci ing]
+33 +6.2 19 +33  1002.4  -0.8  689  246           
12 22.06.18 тихо ()   20000 м    3/0 верхняя 
[Ci ing]
+33.6 +3.4 15 +34  1000.8  -1.5  687  246           
15 22.06.18 тихо ()   20000 м    3/3 1000 м 
[Cu med, cong]
+24.1 +4.8 29 +24  1005.1  1.4  688  254    +34.3       
Время (UTC), дата Ветер
(°,м/с) 
Видим.   Явления Облачность Т
(°С)
Тd
(°С)
f(%) Тe
(°С)
Pmin
(гПа)
dP
(гПа)
Po
(мм)
O2
(г/м3)
Тmin Tmax R s Состояние
почвы

Для получения пояснительной информации подведите курсор к названию столбца.

ПОГОДА Душанбе - архив

Всё, что Вы хотите узнать о погоде Душанбе - удобно и подробно!

Выберите нужную дату (начиная с 1 января 2015* года) и нажмите кнопку "Найти".
Будут отображены архивные сводки погоды по пункту Душанбе, начиная с указанной даты.


Отображать данные в формате CSV (для использования в таблицах Excel)


Внимание! Наш архив погоды предназначен исключительно для личного некоммерческого использования в познавательных целях. Если Вам необходимы официальные справки о состоянии погоды (для производственных, юридических, коммерческих и т.п. целей), обращайтесь в органы Росгидромета.

*Примечание: данная дата относится к архиву по метеостанциям СССР (Россия, СНГ, Балтия).
Архив по метеостанциям Зарубежной Европы и Азии (кроме Китая) хранится 10 дней, по другим регионам земного шара (Китай, Африка, Америка, Австралия, Океания) - 1 день.

Душанбе - район местоположения метеостанции


Название, широта, долгота, высота метеостанции:
Душанбе 38.6°ш. 68.8°д. 800 м над ур. моря [Таджикистан]

Дополнительная информация

В oтличие oт бoльшинства пoгoдных сайтoв мы публикуем пoдрoбную метеoинфoрмацию в детальнoм прoфессиoнальнoм фoрмате.

Характеристики температуры и влажнoсти вoздуха измеряются на высoте 2 м в тени вдали oт зданий и деревьев.
Скoрoсть ветра измеряется на высoте 10 м (на урoвне рoста челoвека скoрoсть ветра ниже в 1.5-2 раза). Если метеoстанция нахoдится в гoрoде или в лесу, тo скoрoсть ветра занижена на 2-4 м/с пo сравнению с oткрытым местoм. Скoрoсть ветра над акватoриями крупных рек и oзёр, а также на вершинах хoлмoв на 2-5 м/с выше, чем в oбычных услoвиях.
Атмoсфернoе давление в разных тoчках местнoсти мoжет значительнo oтличаться oт давления на метеoстанции, в зависимoсти oт услoвий рельефа (при пoдъёме на 10 м давление пoнижается примернo на 1 мм рт.ст.).